Regional Weather Roundup
Issued by NWS Upton, NY

Current Version | Previous Version | Graphics & Text | Print | Product List | Glossary Off
Versions: 1 2 3 4 5 6 7 8 9 10 11 12 13 14 15 16 17 18 19 20 21 22 23 24 25 26 27 28 29 30 31 32 33 34 35 36 37 38 39 40 41 42 43 44 45 46 47 48 49 50

000
ASUS41 KOKX 121805
RWROKX

REGIONAL WEATHER ROUNDUP
NATIONAL WEATHER SERVICE NEW YORK NY
200 PM EDT SAT JUL 12 2014

NOTE: "FAIR" INDICATES FEW OR NO CLOUDS BELOW 12,000 FEET WITH NO
SIGNIFICANT WEATHER AND/OR OBSTRUCTIONS TO VISIBILITY.

NYZ071-072-176-178-NJZ106-104-121900-
NEW YORK CITY METRO AREA


CITY           SKY/WX    TMP DP  RH WIND       PRES   REMARKS
CENTRAL PARK   MOSUNNY   85  62  46 S10G20    30.22S
LAGUARDIA APRT MOSUNNY   85  61  44 S15       30.19S
KENNEDY INTL   MOSUNNY   80  62  54 S14       30.22S
NEWARK/LIBERTY MOSUNNY   83  64  52 S13       30.19S
BRNX BOT. GARD   N/A     81  63  54 E5        30.19F
TETERBORO      MOSUNNY   88  60  38 SW8G17    30.17F
$$

NYZ177-179-078>081-121900-
LONG ISLAND NEW YORK

CITY           SKY/WX    TMP DP  RH WIND       PRES   REMARKS
FARMINGDALE    MOSUNNY   80  60  50 S14       30.22S
ISLIP          NOT AVBL
SHIRLEY        MOSUNNY   80  56  43 S12       30.22S
WESTHAMPTON    MOSUNNY   78  64  61 S9        30.23F
MONTAUK POINT    N/A     77  64  64 S8        30.23F
$$

NYZ052-065-067-121900-
HUDSON VALLEY

CITY           SKY/WX    TMP DP  RH WIND       PRES   REMARKS
WHITE PLAINS   PTSUNNY   82  59  45 S10       30.19F
NEWBURGH       MOSUNNY   84  66  54 W12       30.19F
MONTGOMERY     MOSUNNY   85  65  51 SW12      30.17F
POUGHKEEPSIE   SUNNY     85  62  46 SW7       30.16F
ALBANY         PTSUNNY   85  65  51 SE8       30.14F
$$

NJZ001-105-106-008-010-013-015-019>022-104-121900-
NEW JERSEY

CITY           SKY/WX    TMP DP  RH WIND       PRES   REMARKS
NEWARK/LIBERTY MOSUNNY   83  64  52 S13       30.19S
TETERBORO      MOSUNNY   88  60  38 SW8G17    30.17F
CALDWELL       CLOUDY    84  62  47 SW6       30.19F
MORRISTOWN     NOT AVBL
SOMERVILLE     MOSUNNY   84  63  49 S5        30.17F
LINDEN         FAIR      86  64  46 SE10      30.21S
SUSSEX         MOSUNNY   85  65  51 SW8       30.18F
ANDOVER          N/A     83  66  56 VRB5      30.20F
TRENTON        MOSUNNY   85  61  44 S9        30.18F
MILLVILLE      SUNNY     82  70  66 SE8       30.21S
ATLANTIC CITY  SUNNY     80  65  59 SE12      30.22F
WRIGHTSTOWN    NOT AVBL
TOMS RIVER     MOSUNNY   84  63  48 SE12      30.21F
BELMAR         MOSUNNY   82  61  47 S12       30.21F
$$

PAZ047>061-062-071-121900-
EASTERN PENNSYLVANIA

CITY           SKY/WX    TMP DP  RH WIND       PRES   REMARKS
PHILADELPHIA   MOSUNNY   87  61  41 S9        30.18F
ALLENTOWN      PTSUNNY   85  64  49 S8        30.18F
SCRANTON       CLOUDY    81  64  56 VRB6      30.18F
$$

CTZ002-004>006-009-010-012-RIZ004-006-007-MAZ004-011-015-121900-
SOUTHERN NEW ENGLAND
 IN CT

CITY           SKY/WX    TMP DP  RH WIND       PRES   REMARKS
BRADLEY INTL   MOSUNNY   87  58  37 CALM      30.16F
HARTFORD       MOSUNNY   85  58  39 S6        30.16F
DANBURY        SUNNY     83  59  44 SW13      30.21S
WTRBRY/OXFORD  MOSUNNY   82  63  51 SW7       30.23F
BRIDGEPORT     MOSUNNY   84  61  45 SW9       30.19F
MERIDEN        MOSUNNY   85  63  47 S10       30.18F
NEW HAVEN      MOSUNNY   84  64  50 S8        30.20F
CHESTER        FAIR      81  61  50 SW8       30.21F
GROTON         MOSUNNY   76  64  66 S9        30.20F
WILLIMANTIC    MOSUNNY   85  59  41 W7        30.18F

 IN RI

CITY           SKY/WX    TMP DP  RH WIND       PRES   REMARKS
PROVIDENCE     PTSUNNY   81  63  54 S14       30.19F
BLOCK ISLAND   SUNNY     75  61  60 SW13      30.22F
WESTERLY       SUNNY     78  63  59 S9        30.22S

 IN MA

CITY           SKY/WX    TMP DP  RH WIND       PRES   REMARKS
BOSTON         MOSUNNY   75  60  59 E13       30.17F
WORCESTER      MOSUNNY   80  56  43 VRB3      30.21F
WESTFIELD      NOT AVBL
PROVINCETOWN   SUNNY     81  61  50 SW8       30.19F
NANTUCKET      SUNNY     72  61  68 S9        30.22F
$$

ANZ330-335-338-340-345-350-353-355-121900-
COASTAL MARINE OBSERVATIONS


STATION/POSITION TIME  SKY/WX   TEMP    WIND        PRES    VSBY  WAVE
                                AIR SEA DIR/SP/G                  HT/PER
                 (UTC)          (F)     (DEG/KT/KT) (MB)    (MI)  (FT/S)
NY HARB ENTRANCE NOT AVBL
4S FIRE IS       1700               71                N/A           2/ 6
23SW MTP         1800            70 69              1023.2          2/ 6
HUDSON CANYON    1800            70 72  100/  6/  6 1023.6          2/ 7
EXECUTION ROCKS  1800            77 68  210/  8/  8   N/A
WESTERN LI SOUND 1800            77     110/  4/  4   N/A           1
CENTRAL LI SOUND 1800            74 74  110/  4/  4   N/A           0
EASTERN LI SOUND 1700            69 65  170/  4/  4   N/A
ROBBINS REEF     1800            70     180/ 17/ 19   N/A
$$


>>>>>>>>>>>>>>>>>>>>>>>>>>>> KEY <<<<<<<<<<<<<<<<<<<<<<<<<<<
>                                                          <
>     SKY/WX - SKY CONDITION/PRESENT WEATHER               <
>     TMP    - TEMPERATURE IN FAHRENHEIT                   <
>     DP     - DEWPOINT IN FAHRENHEIT                      <
>     RH     - RELATIVE HUMIDITY IN PERCENT                <
>     WIND   - DIRECTION AND SPEED IN MPH                  <
>     PRES   - MEAN SEA LEVEL PRESSURE IN INCHES OF HG     <
>     WCI    - WIND CHILL INDEX                            <
>     VSB    - VISIBILITY IN MILES                         <
>     HX     - HEAT INDEX                                  <
>     TC     - TEMPERATURE IN CELSIUS                      <
>     VRB    - VARIABLE WIND DIRECTION                     <
>                                                          <
>>>>>>>>>>>>>>>>>>>>>>>>>>>> KEY <<<<<<<<<<<<<<<<<<<<<<<<<<<




USA.gov is the U.S. government's official web portal to all federal, state and local government web resources and services.